www.pogodaiklimat.ru

Погода и климат >> Архив погоды >> Россия >> Пензенская область >> Пенза


АРХИВ ПОГОДЫ в Пензе

Время (UTC), дата Ветер
(напр.,м/с)
 
Видим.   Явления Облачность Т
(С)
Тd
(С)
f
(%)
Тe
(С)
Тes
(С)
Комфортность P
(гПа)
Po
(гПа)
Тmin
(С)
Tmax
(С)
R
(мм)
R24
(мм)
S
(см)
18 9.02 З 4 4000 м слаб. снег 10/10 240 м
[St]
-7.1 -7.8 95 -14 -14 по сезону 1027.6 1005.2
21 9.02 З 4 4000 м слаб. снег 10/10 300 м
[St]
-6.8 -7.7 93 -14 -14 по сезону 1027.1 1004.7
00 10.02 ЮЗ 3 4000 м слаб. снег 10/10 300 м
[St]
-7.2 -7.5 98 -13 -13 по сезону 1026.7 1004.3
03 10.02 ЮЗ 2 4000 м слаб. снег 10/10 540 м
[Sc]
-8.0 -8.5 96 -13 -13 по сезону 1026.8 1004.3 -8.1 0.3 46
06 10.02 ЮЗ 2 4000 м слаб. снег 10/10 540 м
[Sc]
-8.4 -9.0 95 -13 -13 по сезону 1026.8 1004.3 -8.4
09 10.02 ЮЗ 3 10 км {снег} 10/6 660 м
[Sc Ac trans Ci fib]
-7.7 -11.3 75 -13 -13 по сезону 1026.5 1004.0
12 10.02 ЮЗ 2 10 км {снег} 8/0
[Cs]
-8.7 -12.3 75 -13 -12 по сезону 1025.8 1003.3
15 10.02 ЮЗ 2 10 км 10/10 330 м
[St]
-10.0 -11.7 87 -15 -15 по сезону 1025.6 1003.0 -7.5 0.0
18 10.02 ЮЗ 2 10 км 10/10 210 м
[St]
-10.2 -11.3 92 -15 -15 по сезону 1025.5 1002.8
21 10.02 Ю 2 29 км 10/10 210 м
[St]
-13.3 -14.2 93 -18 -18 по сезону 1025.4 1002.5
00 11.02 штиль 0 10 км 6/6 870 м
[Sc]
-13.6 -14.7 91 -14 -14 по сезону 1025.4 1002.4
03 11.02 Ю 1 10 км 10/10 210 м
[St]
-11.7 -12.3 95 -14 -14 по сезону 1025.3 1002.5 -14.3 47
06 11.02 Ю 2 4000 м дымка 10/10 180 м
[St]
-11.6 -12.2 95 -16 -16 по сезону 1026.0 1003.2
09 11.02 ЮВ 3 10 км 10/10 300 м
[St]
-9.8 -12.9 78 -16 -16 по сезону 1025.8 1003.2
12 11.02 ЮВ 2 10 км 10/0
[Ac As]
-7.8 -10.5 81 -12 -12 по сезону 1025.7 1003.3
15 11.02 ЮЗ 3 10 км 10/10 300 м
[St]
-7.6 -9.6 86 -13 -13 по сезону 1026.4 1003.9 -7.1
18 11.02 ЮЗ 2 10 км 10/10 660 м
[Sc]
-7.5 -10.0 82 -12 -12 по сезону 1026.6 1004.2
21 11.02 ЮВ 1 10 км 6/0
[Cc]
-12.7 -14.9 84 -15 -15 по сезону 1027.1 1004.2
00 12.02 Ю 2 10 км 10/10 720 м
[Sc]
-11.9 -15.7 73 -16 -16 по сезону 1027.1 1004.2
03 12.02 ЮВ 2 10 км 10/10 600 м
[Sc]
-11.2 -14.3 78 -16 -16 по сезону 1026.4 1003.6 -13.5 47
06 12.02 Ю 2 10 км 10/10 800 м
[Sc]
-8.6 -12.5 73 -13 -13 по сезону 1026.3 1003.8
09 12.02 ЮЗ 2 10 км 10/0
[Ac As]
-7.2 -13.1 63 -11 -10 по сезону 1026.8 1004.4
12 12.02 Ю 4 10 км 9/0
[Ac trans Cc]
-5.8 -12.6 59 -12 -11 по сезону 1026.2 1003.9
15 12.02 Ю 4 10 км 10/0
[Ac As]
-7.0 -11.7 69 -13 -13 по сезону 1026.3 1003.9 -5.5
18 12.02 ЮВ 3 10 км 8/0
[Cc]
-8.8 -14.3 64 -14 -14 по сезону 1026.7 1004.1
21 12.02 ЮВ 4
{10}
10 км 10/0
[As trans]
-11.1 -14.0 79 -18 -18 по сезону 1026.9 1004.1
00 13.02 ЮВ 3 10 км 10/0
[As trans]
-11.2 -14.1 79 -17 -17 по сезону 1026.3 1003.5
03 13.02 ЮВ 4 10 км 10/0
[As trans]
-11.8 -14.5 80 -19 -19 прохладно 1025.0 1002.2 -11.8 46
06 13.02 ЮВ 3 10 км 10/0
[Ac As]
-11.6 -14.6 78 -18 -17 по сезону 1023.9 1001.2 -12.2
09 13.02 Ю 5-11
{15}
10 км позёмок 10/0
[Ac As]
-5.1 -7.7 82 -12 -12 по сезону 1020.9 998.8
12 13.02 Ю 4
{14}
4000 м слаб. снег [диам. гололёда 0 мм] 10/4 300 м
[Cb cap As op]
-6.2 -8.9 81 -13 -13 по сезону 1019.5 997.4
15 13.02 Ю 5-11
{11}
4000 м слаб. снег 10/10 300 м
[Frnb Ns]
-5.8 -7.3 89 -13 -13 по сезону 1019.1 996.9 -5.0 1
18 13.02 ЮЗ 4-11
{12}
4000 м слаб. снег 10/10 400 м
[Frnb]
-3.1 -3.8 95 -9 -9 по сезону 1018.6 996.7
21 13.02 ЮЗ 4
{11}
10 км позёмок {снег} 10/10 300 м
[Frnb]
-1.7 -2.4 95 -8 -8 тепло 1018.7 996.9
00 14.02 З 5 10 км позёмок {снег} 10/10 300 м
[Frnb]
-1.2 -1.9 95 -8 -8 тепло 1018.4 996.7
03 14.02 З 3 4000 м слаб. снег {метель} 10/10 210 м
[Frnb]
-1.6 -2.0 97 -7 -7 тепло 1018.3 996.5 -5.8 1 45
06 14.02 З 4 4000 м слаб. снег {метель} 10/10 210 м
[Frnb Ns]
-1.6 -2.1 96 -8 -8 тепло 1019.3 997.5
09 14.02 СЗ 4 4000 м слаб. снег {метель} 10/10 360 м
[Frnb]
-1.4 -2.4 93 -7 -7 тепло 1020.9 999.1
12 14.02 СЗ 4 10 км позёмок {снег} 10/10 870 м
[Frnb]
-1.4 -4.1 82 -7 -7 по сезону 1022.4 1000.5
15 14.02 С 4 10 км позёмок 10/10 900 м
[Sc]
-2.8 -6.6 75 -9 -9 по сезону 1024.5 1002.5 -1.0 0.7
18 14.02 СЗ 2 10 км {метель} 10/10 1000 м
[Sc]
-4.3 -7.9 76 -8 -8 по сезону 1026.0 1003.8
21 14.02 СЗ 2 10 км 10/10 1050 м
[Sc]
-5.3 -8.3 79 -9 -9 по сезону 1026.9 1004.6
00 15.02 З 1 10 км 8/0
[Ac trans]
-11.2 -11.8 95 -13 -13 по сезону 1026.9 1004.1
03 15.02 З 3 10 км 9/0
[Ac trans Cs]
-12.8 -13.5 94 -19 -19 прохладно 1025.9 1003.0 -13.1 46
06 15.02 З 3 10 км 10/0
[Cs]
-11.4 -11.9 96 -17 -16 по сезону 1024.2 1001.5
09 15.02 З 4 10 км 10/0
[Ac As]
-8.2 -9.2 92 -15 -14 по сезону 1020.9 998.5
12 15.02 З 6
{14}
10 км позёмок 10/10 300 м
[St]
-5.3 -6.5 91 -13 -13 по сезону 1015.1 993.1
15 15.02 З 4
{11}
4000 м слаб. снег {метель} 10/10 300 м
[Frnb Ns]
-3.6 -4.2 96 -10 -10 по сезону 1012.5 990.7 -3.6 1
18 15.02 З 4 4000 м дымка {снег} 10/10 210 м
[St]
-2.6 -3.0 97 -9 -9 по сезону 1009.7 988.1
21 15.02 СЗ 3 4000 м дымка [диам. гололёда 1 мм] 10/10 330 м
[Frnb]
-0.3 -1.0 95 -5 -5 тепло 1008.5 987.0
00 16.02 СЗ 3 4000 м дымка [диам. гололёда 1 мм] 10/0
[]
+0.1 -1.2 91 -5 -5 тепло 1007.3 985.9
03 16.02 СЗ 4 4000 м слаб. дождь со снегом [диам. гололёда 1 мм] 10/10 400 м
[Frnb]
+0.3 -0.9 92 -5 -5 тепло 1006.6 985.3 -3.6 0.7 46
06 16.02 СЗ 4 10 км {снег, дождь} 10/10 450 м
[Sc]
+1.0 +0.8 99 -4 -4 тепло 1007.2 985.9
09 16.02 СЗ 4 10 км 10/10 360 м
[St]
+1.5 +0.8 95 -4 -4 тепло 1007.4 986.1
12 16.02 СЗ 4 4000 м слаб. снег 10/10 300 м
[Frnb]
+1.3 +0.8 96 -4 -4 тепло 1007.3 986.0
15 16.02 С 4 4000 м слаб. снег 10/10 300 м
[Sc]
+1.4 -0.4 88 -4 -4 тепло 1008.6 987.3 +2.0 0.0

 

Местоположение метеостанции Пенза (Пензенская область, Россия): широта 53.12 долгота 45.02 высота над уровнем моря 172 м.

В архиве по умолчанию представлена погода в Пензе за последнюю неделю. Архивные данные за месяц целиком и за предыдущие месяцы, начиная с января 2011 года, Вы можете получить, выбрав интересующий диапазон дат из раскрывающегося списка и нажав кнопку "Ввод!".


*Определитесь, кто Вы:
робот инопланетянин человек

Внимание! Время в таблицах - всемирное. Для получения местного времени необходимо прибавить поправку, которая равна 3 ч.

Смотрите также архив погоды в соседних городах и на ближайших метеорологических станциях:

Погода в Кондоле (Пензенская область, Россия) (34 км)
Погода в Городище (Пензенская область, Россия) (47 км)
Погода в Колышлее (Пензенская область, Россия) (54 км)
Погода в Каменке (Пензенская область, Россия) (66 км)
Погода в Инсаре (Мордовия, Россия) (94 км)
Погода в Радищево (Пензенская область, Россия) (95 км)
Погода в Петровске (Саратовская область, Россия) (97 км)
Погода в Белинском (Пензенская область, Россия) (110 км)
Погода в Саранске (Мордовия, Россия) (113 км)
Погода в Пачелме (Пензенская область, Россия) (116 км)

Пояснения к столбцам:

Ветер - указаны скорость ветра в м/с - средняя за 10 мин, порывы в срок и между сроками (в фигурных скобках) и направление, откуда дует ветер: С - северный, СВ - северо-восточный, В - восточный, ЮВ - юго-восточный, Ю - южный, ЮЗ - юго-западный, З - западный, СЗ - северо-западный.
Видимость - горизонтальная дальность видимости в метрах или километрах. При видимости от 1 до 10 км при отсутствии осадков обычно наблюдается дымка, при ухудшении видимости до 1 км и менее - туман. В сухую погоду видимость может ухудшаться дымом, пылью или мглою.
Явления - указаны атмосферные явления, наблюдавшиеся в срок или в последний час перед сроком; фигурными скобками обозначены явления, наблюдавшиеся между сроками (за 1-3 часа до срока); квадратными скобками обозначены град или гололедные отложения с указанием их диаметра в мм.
Облачность - указаны через наклонную черту общая и нижняя облачность в баллах и высота нижней границы облаков в метрах; квадратными скобками обозначены формы облаков: Ci - перистые, Cs - перисто-слоистые, Cc - перисто-кучевые, Ac - высококучевые, As - высокослоистые, Sc - слоисто-кучевые, Ns - слоисто-дождевые, Cu - кучевые, Cb - кучево-дождевые. Подробнее классификацию облаков см. в Атласе облаков (PDF).
T - Температура воздуха - температура, измеренная на высоте 2 м над землей.
Td - Температура точки росы - температура, при понижении до которой содержащийся в воздухе водяной пар достигнет насыщения.
f - Относительная влажность воздуха - влажноcть воздуха, измеренная на высоте 2 м над землей.
Te - Эффективная температура - температура, которую ощущает одетый по сезону человек в тени. Характеристика душности погоды. При расчете учитывается влияние влажности воздуха и скорости ветра на теплоощущения человека.
Tes - Эффективная температура на солнце - температура, которую ощущает человек, с поправкой на солнечный нагрев. Характеристика знойности погоды. Зависит от высоты солнца над горизонтом, облачности и скорости ветра. Ночью, в пасмурную погоду, а также при ветре 12 м/с и более поправка равна нулю.
P - Атмосферное давление - приведенное к уровню моря атмосферное давление.
Po - Атмосферное давление - измеренное на уровне метеостанции атмосферное давление.
Tmin - Минимальная температура - минимум температуры воздуха на высоте 2 м над землей.
Tmax - Максимальная температура - максимум температуры воздуха на высоте 2 м над землей.
R - Количество осадков - Количество выпавших осадков за период времени, мм. При наведении курсора мыши на число - период времени, за который выпало указанное количество осадков.
R24 - Количество осадков - Количество выпавших осадков за 24 часа, мм.
S - Снежный покров - Высота снежного покрова, см. При наведении курсора мыши на число - состояние снежного покрова и степень покрытия местности в баллах.